Вернуться в каталог

STARLINK-11555

АктивенСвязьVLEO
NORAD 62915·PAYLOAD·🇺🇸 United States

Запущен Feb 8, 2025 с Cape Canaveral Space Force Station

Loading…

Ближайшие Пролёты (ближайшие 24 часа)

TLE

СвежийSource: CelesTrak SupGP

Эпоха: Sep 15, 2026, 02:51 UTC

1 62915C 25027J   26258.11923611  .00062256  00000+0  48340-3 0  2586
2 62915  43.0004 286.1132 0001545 244.8434  36.9839 15.70814637    14

Отслеживайте STARLINK-11555 в реальном времени с AllMySat

Download on the App Store